STARLINK-2089 (47372 NORAD) Tracking and Keplerian Element Data

This shows tracking and keplerian element data for the satellite.

Feedback or suggestion? Click here.




ElementValue
Catalog47372
NameSTARLINK-2089
Epoch Orbit175
Epoch Day101.91668981
Epoch Year2021
RAAN184.7432
Inclination53.0466
Eccentricity0.0001187
Argument of Perigee69.7097
Mean Anonmoly15.9591
Mean Motion15.06414032
Decay Rate-0.00029915
L11 47372U 21005Z 21101.91668981 -.00029915 00000-0 -19971-2 0 9991
L22 47372 53.0466 184.7432 0001187 69.7097 15.9591 15.06414032 1752

Live tracking and technical data element details for STARLINK-2089 (NORAD 47372). STARLINK-2089 can be tracked NOW for your location showing map with azimuth and elevation plus other details from your city location.

Track the satellite on the map from your city or location and see movement details for azimuth, elevation, latitude, longitude, range, height, and movement on the map or in text.







IsCatalogInMostPopularTable: catalog: 47372, numindb: 14
Update: records affected: 1



GetName: 47372 STARLINK-2089

Hit Count: updated at: Tue, 13 Apr 2021 05:15:01 GMT